Location: Burbank
(38.7788°N, 114.0429°W)
Time: 22:17:12
(UTC+00:00)

S-56A Canister/Altair - Pass Details

Date: 18 May 2026
Orbit: 633 x 2484 km, 38.9° (Epoch: 1 June)

Event Time Altitude Azimuth Distance (km) Brightness Sun altitude
Rises 04:37:25 0° 263° (W) 3,068 11.2 -18.7°
Reaches altitude 10° 04:39:51 10° 264° (W) 2,061 10.2 -19.0°
Maximum altitude 04:44:22 89° 186° (S) 635 7.0 -19.6°
Enters shadow 04:46:30 31° 85° (E) 1,128 8.1 -19.9°
Drops below altitude 10° 04:49:01 10° 86° (E) 2,113 - -20.2°
Sets 04:51:32 0° 86° (E) 3,153 - -20.5°
